Le nostre stazioni meteo in Italia

Pubblicità
Il mio iltempo24.it
Olbia/Costa Smeralda, Italia (16531): Temperatura & dewpoint: 15.09.2018 05:00:00 - 21.09.2018 05:00:00 (CEST)Olbia/Costa Smeralda, Italia (16531): velocità del vento: 15.09.2018 05:00:00 - 21.09.2018 05:00:00 (CEST)Olbia/Costa Smeralda, Italia (16531): direzione del vento: 15.09.2018 05:00:00 - 21.09.2018 05:00:00 (CEST)Olbia/Costa Smeralda, Italia (16531): reduced air pressure: 15.09.2018 05:00:00 - 21.09.2018 05:00:00 (CEST)Olbia/Costa Smeralda, Italia (16531): visibility: 15.09.2018 05:00:00 - 21.09.2018 05:00:00 (CEST)Olbia/Costa Smeralda, Italia (16531): precipitazioni: 15.09.2018 05:00:00 - 21.09.2018 05:00:00 (CEST)
Data & Tempo tt [°C] td [°C] ff [km/h] ff [kn] dd ppp [hPa] vv [km] rr [mm]
21.09.2018 05:00:00 21,0 20,0 5 3 ONO - 7 -
21.09.2018 04:00:00 22,0 21,0 16 9 E - 5 -
21.09.2018 03:00:00 23,0 21,0 16 9 NNE - 10 -
21.09.2018 02:00:00 23,1 21,2 21 11 N 1014,9 10 -
21.09.2018 01:00:00 23,0 21,0 9 5 NE - 10 -
21.09.2018 00:00:00 21,0 20,0 13 7 NNE - 7 -
20.09.2018 23:00:00 23,5 21,5 16 9 NNE 1015,3 7 0,0
20.09.2018 22:00:00 24,0 22,0 16 9 NNE - 10 -
20.09.2018 21:00:00 24,0 21,0 13 7 N - 10 -
20.09.2018 20:00:00 22,8 21,8 5 3 O 1015,0 10 -
20.09.2018 19:00:00 22,0 21,0 5 3 SO - 10 -
20.09.2018 18:00:00 22,0 21,0 8 4 O - 10 -
20.09.2018 17:00:00 21,3 19,9 28 15 ENE 1015,9 4,0 0,0
20.09.2018 16:00:00 23,0 22,0 2 1 - - 10 -
20.09.2018 15:00:00 22,0 20,0 29 16 NE - 1,5 -
20.09.2018 14:00:00 24,7 21,3 29 16 NNE 1016,4 7 -
20.09.2018 13:00:00 26,0 20,0 24 13 N - 10 -
20.09.2018 12:00:00 25,0 21,0 21 11 N - 10 -
20.09.2018 11:00:00 23,6 22,5 8 4 ONO 1017,2 10 0,0
20.09.2018 10:00:00 22,0 21,0 8 4 - - 8 -
20.09.2018 09:00:00 21,0 20,0 8 4 SSE - 3,0 -
20.09.2018 08:00:00 21,6 20,1 9 5 SO 1016,6 8 -
20.09.2018 07:00:00 21,0 20,0 9 5 OSO - 10 -
20.09.2018 06:00:00 21,0 20,0 9 5 SO - 10 -
20.09.2018 05:00:00 20,5 19,6 8 4 OSO 1017,1 10 0,0
20.09.2018 04:00:00 21,0 20,0 5 3 SO - 10 -
20.09.2018 03:00:00 20,0 20,0 4 2 - - 10 -
20.09.2018 02:00:00 20,4 19,9 8 4 OSO 1018,1 10 -
20.09.2018 01:00:00 21,0 21,0 4 2 - - 10 -
20.09.2018 00:00:00 21,0 21,0 5 3 OSO - 10 -
19.09.2018 23:00:00 21,7 20,2 8 4 OSO 1018,6 10 0,0
19.09.2018 22:00:00 23,0 21,0 5 3 NO - 10 -
19.09.2018 21:00:00 23,0 21,0 5 3 NE - 10 -
19.09.2018 20:00:00 24,0 21,1 9 5 NNE 1017,8 10 -
19.09.2018 19:00:00 25,0 21,0 11 6 NE - 10 -
19.09.2018 18:00:00 25,0 21,0 11 6 NE - 10 -
19.09.2018 17:00:00 25,4 21,2 13 7 NE 1017,5 10 0,0
19.09.2018 16:00:00 26,0 21,0 16 9 ENE - 10 -
19.09.2018 15:00:00 26,0 22,0 24 13 NE - 9 -
19.09.2018 14:00:00 26,8 21,4 21 11 ENE 1017,9 10 -
19.09.2018 13:00:00 26,0 22,0 18 10 NE - 10 -
19.09.2018 12:00:00 25,0 22,0 18 10 NE - 10 -
19.09.2018 11:00:00 25,6 21,4 11 6 ENE 1018,3 10 0,0
19.09.2018 10:00:00 24,0 23,0 2 1 - - 9 -
19.09.2018 09:00:00 22,0 22,0 4 2 - - 9 -
19.09.2018 08:00:00 21,6 21,3 8 4 ONO 1017,6 10 -
19.09.2018 07:00:00 22,0 21,0 4 2 - - 10 -
19.09.2018 06:00:00 22,0 21,0 4 2 - - 10 -
19.09.2018 05:00:00 21,5 21,0 4 2 - 1017,3 10 0,0
19.09.2018 04:00:00 22,0 21,0 11 6 NE - 10 -
19.09.2018 03:00:00 22,0 22,0 8 4 SO - 10 -
19.09.2018 02:00:00 22,0 21,8 2 1 - 1017,8 10 -
19.09.2018 01:00:00 22,0 22,0 2 1 - - 10 -
19.09.2018 00:00:00 22,0 22,0 5 3 O - 10 -
18.09.2018 23:00:00 22,4 22,1 8 4 OSO 1018,5 10 0,0
18.09.2018 22:00:00 23,0 22,0 2 1 S - 10 -
18.09.2018 21:00:00 22,0 22,0 2 1 - - 10 -
18.09.2018 20:00:00 22,1 21,3 4 2 S 1017,7 10 -
18.09.2018 19:00:00 23,0 22,0 8 4 NE - 10 -
18.09.2018 18:00:00 23,0 21,0 13 7 SSE - 6 -
18.09.2018 17:00:00 26,7 21,2 11 6 SE 1017,4 10 0,0
18.09.2018 16:00:00 28,0 21,0 8 4 ESE - 10 -
18.09.2018 15:00:00 29,0 20,0 5 3 S - 10 -
18.09.2018 14:00:00 27,6 20,5 5 3 S 1018,0 10 -
18.09.2018 13:00:00 24,0 21,0 15 8 SO - 10 -
18.09.2018 12:00:00 26,0 21,0 2 1 - - 10 -
18.09.2018 11:00:00 25,8 20,6 4 2 - 1019,1 10 0,0
18.09.2018 10:00:00 24,0 21,0 4 2 - - 10 -
18.09.2018 09:00:00 22,0 20,0 4 2 - - 10 -
18.09.2018 08:00:00 20,8 19,9 2 1 N 1018,5 20 -
18.09.2018 07:00:00 20,0 19,0 5 3 OSO - 10 -
18.09.2018 06:00:00 20,0 19,0 5 3 O - 10 -
18.09.2018 05:00:00 20,4 19,6 4 2 SSO 1018,2 10 0,0
18.09.2018 04:00:00 21,0 20,0 4 2 - - 10 -
18.09.2018 03:00:00 21,0 20,0 2 1 - - 10 -
18.09.2018 02:00:00 20,3 19,7 4 2 - 1018,8 10 -
18.09.2018 01:00:00 21,0 20,0 4 2 SE - 10 -
18.09.2018 00:00:00 21,0 20,0 4 2 - - 10 -
17.09.2018 23:00:00 21,7 20,2 2 1 - 1019,1 10 0,0
17.09.2018 22:00:00 23,0 20,0 5 3 ESE - 10 -
17.09.2018 21:00:00 25,0 20,0 4 2 S - 10 -
17.09.2018 20:00:00 25,2 20,6 5 3 ESE 1019,0 10 -
17.09.2018 19:00:00 27,0 19,0 8 4 N - 10 -
17.09.2018 18:00:00 26,0 19,0 11 6 SSE - 10 -
17.09.2018 17:00:00 28,7 21,5 15 8 E 1018,1 10 0,0
17.09.2018 16:00:00 28,0 24,0 11 6 N - 10 -
17.09.2018 15:00:00 27,0 23,0 8 4 NNO - 10 -
17.09.2018 14:00:00 25,6 23,7 4 2 - 1019,9 10 -
17.09.2018 13:00:00 25,0 23,0 9 5 ENE - 5 -
17.09.2018 12:00:00 27,0 22,0 5 3 NNE - 10 -
17.09.2018 11:00:00 26,7 21,8 4 2 - 1021,0 10 0,0
17.09.2018 10:00:00 26,0 22,0 2 1 - - 10 -
17.09.2018 09:00:00 23,0 22,0 2 1 - - 10 -
17.09.2018 08:00:00 20,6 20,4 4 2 - 1020,9 10 -
17.09.2018 07:00:00 20,0 20,0 5 3 OSO - 10 -
17.09.2018 06:00:00 20,0 19,0 2 1 - - 10 -
17.09.2018 05:00:00 19,9 19,5 2 1 - 1020,3 10 0,0
17.09.2018 04:00:00 20,0 20,0 2 1 - - 10 -
17.09.2018 03:00:00 20,0 20,0 2 1 - - 10 -
17.09.2018 02:00:00 20,7 20,2 0 0 N 1021,1 10 -
17.09.2018 01:00:00 21,0 21,0 4 2 S - 10 -
17.09.2018 00:00:00 22,0 21,0 4 2 - - 10 -
16.09.2018 23:00:00 22,4 21,5 8 4 SO 1021,6 10 0,0
16.09.2018 22:00:00 23,0 22,0 4 2 - - 10 -
16.09.2018 21:00:00 25,0 22,0 2 1 - - 10 -
16.09.2018 20:00:00 25,3 22,4 8 4 E 1021,1 10 -
16.09.2018 19:00:00 27,0 22,0 9 5 E - 10 -
16.09.2018 18:00:00 28,0 21,0 9 5 ENE - 10 -
16.09.2018 17:00:00 27,6 21,7 15 8 ENE 1020,6 10 0,0
16.09.2018 16:00:00 29,0 22,0 18 10 NE - 10 -
16.09.2018 15:00:00 30,0 22,0 16 9 ENE - 10 -
16.09.2018 14:00:00 28,7 22,0 18 10 NE 1021,1 10 -
16.09.2018 13:00:00 29,0 22,0 13 7 ENE - 10 -
16.09.2018 12:00:00 29,0 21,0 13 7 NNE - 10 -
16.09.2018 11:00:00 26,9 20,4 4 2 - 1021,5 10 0,0
16.09.2018 10:00:00 25,0 19,0 4 2 - - 10 -
16.09.2018 09:00:00 22,0 20,0 2 1 - - 10 -
16.09.2018 08:00:00 18,8 18,2 4 2 - 1021,6 10 -
16.09.2018 07:00:00 18,0 18,0 4 2 - - 10 -
16.09.2018 06:00:00 19,0 18,0 5 3 OSO - 10 -
16.09.2018 05:00:00 18,9 18,2 4 2 SSO 1020,9 10 0,0
16.09.2018 04:00:00 20,0 19,0 5 3 SO - 10 -
16.09.2018 03:00:00 20,0 19,0 5 3 O - 10 -
16.09.2018 02:00:00 19,9 18,7 2 1 - 1021,6 10 -
16.09.2018 01:00:00 20,0 19,0 4 2 - - 10 -
16.09.2018 00:00:00 21,0 19,0 2 1 - - 10 -
15.09.2018 23:00:00 21,5 19,5 5 3 SO 1021,2 10 0,0
15.09.2018 22:00:00 22,0 20,0 4 2 - - 10 -
15.09.2018 21:00:00 25,0 19,0 2 1 - - 10 -
15.09.2018 20:00:00 25,3 19,4 5 3 E 1020,2 10 -
15.09.2018 19:00:00 28,0 19,0 11 6 E - 10 -
15.09.2018 18:00:00 28,0 19,0 16 9 E - 10 -
15.09.2018 17:00:00 29,2 19,1 21 11 E 1019,2 10 0,0
15.09.2018 16:00:00 30,0 18,0 16 9 E - 10 -
15.09.2018 15:00:00 31,0 17,0 13 7 ENE - 10 -
15.09.2018 14:00:00 31,0 14,3 9 5 - 1019,7 10 -
15.09.2018 13:00:00 31,0 16,0 4 2 - - 10 -
15.09.2018 12:00:00 29,0 17,0 16 9 OSO - 10 -
15.09.2018 11:00:00 27,0 17,2 24 13 OSO 1020,0 10 0,0
15.09.2018 10:00:00 24,0 19,0 26 14 OSO - 10 -
15.09.2018 09:00:00 22,0 19,0 24 13 SO - 10 -
15.09.2018 08:00:00 20,8 18,5 18 10 SO 1019,6 10 -
15.09.2018 07:00:00 21,0 19,0 15 8 SO - 10 -
15.09.2018 06:00:00 21,0 19,0 15 8 SO - 10 -
15.09.2018 05:00:00 20,6 18,6 11 6 OSO 1018,5 10 0,0

tt = Temperatura
td = dewpoint
ff = velocità del vento
dd = direzione del vento
ppp = reduced air pressure
vv = visibility
rr = precipitazioni

Stazioni seguenti

WeatherPro
AMSI
MeteoEarth